Location: Fort Worth, Tx
(32.7431°N, 97.3695°W)
Time: 04:16:38
(UTC-04:00)

Vanguard 3 - Pass Details

Date: 25 February 2024
Orbit: 510 x 3234 km, 33.3° (Epoch: 24 April)

Event Time Altitude Azimuth Distance (km) Brightness Sun altitude
Rises 23:44:19 0° 261° (W) 7,089 12.3 -54.0°
Reaches altitude 10° 23:48:58 10° 262° (W) 6,153 11.9 -54.8°
Enters shadow 00:02:58 55° 265° (W) 3,522 10.1 -57.1°
